HULIANWANG DIGUI-85

Satellite information

Favourite Embed

Satellite Type and Status

PAYLOADIN ORBIT

Key statistics

Satellite HULIANWANG DIGUI-85 at a glance.

Uptime

23

Days in orbit

Revolutions

≈ 13.6

Per day

Orbit

LEO

Low Earth Orbit

Inclination

86.5

Latest

Satellite identification and parameters

Extended collection of information and parameters for HULIANWANG DIGUI-85.

Object identification

Identified? True

Debris? False

Object name: HULIANWANG DIGUI-85

International designator: 2025-220D

Object number (NORAD): 65820

Object ID (CCSDS): 65820

Country: PEOPLES REPUBLIC OF CHINA (PRC)

Current information (Y/N): Y

Orbital parameters

Period: 105.669 minutes

Inclination: 86.4924 deg

SMA: 7403.889 km

Apoapsis: 1026.933 km

Periapsis: 1024.575 km

RAAN: 126.3926 deg

Eccentricy: 0.00015921

Argument of periapsis: 110.6994 deg

Mean anomaly: 249.4332 deg

Mean motion: 13.62739671 rev/day

Mean motion (dot): 0.00000057 rev/day2

B* drag term: 0.000052001166 1/REarth

Two-line elements (TLE)

Creation date: Oct. 17, 2025, 2:15 a.m.

Reference frame: TEME

Reference center: EARTH

Epoch: Oct. 16, 2025, 9:22 p.m. UTC

TLE line 0: 0 HULIANWANG DIGUI-85

TLE line 1: 1 65820U 25220D 25289.89039354 .00000057 00000-0 52001-4 0 9993

TLE line 2: 2 65820 86.4924 126.3926 0001592 110.6994 249.4332 13.62739671 2657

Live tracking on map

Real-time ground track for satellite HULIANWANG DIGUI-85.

In-orbit conjunctions

There are no conjunctions computed for HULIANWANG DIGUI-85, at the moment. Check back to stay up to date, as we update our databases every day.

Go to all conjunctions

Associated space launch

A batch of 5 Low Earth Orbit communication satellites for the Chinese state owned SatNet constellation operated by the China Satellite Network Group. The constellation will eventually consists of 13000 satellites.

HULIANWANG DIGUI-85 was lifted into orbit during the mission ‘Long March 6A | SatNet LEO Group 11’, on board a Long March 6A space rocket.

The launch took place on Sept. 27, 2025, 12:40 p.m. from Launch Complex 9A.

For more information about the launch, click the button.

Launch to space Long March 6A | SatNet LEO Group 11
Long March 6A | SatNet LEO Group 11

Agency: N/A

Status: Launch Successful

Launch date: Sept. 27, 2025, 12:40 p.m. UTC

Rocket: Long March 6A

Launch pad: Launch Complex 9A

Location: Taiyuan Satellite Launch Center, People's Republic of China

...

Latest news about this satellite

News about space launch
China boosts broadband, IoT and weather satellite fleets with flurry of launches

A flurry of launch activity has seen China add to an Internet of Things constellation, loft new broadband satellites and boost its weather satellite fleet. The post China boosts broadband, IoT and weather satellite fleets with flurry of launches appeared...

News about space launch
Launch Roundup: Kuiper, Starlink, IMAP headline launch manifest

A busy slate of launches is planned for the last full week of September, including… The post Launch Roundup: Kuiper, Starlink, IMAP headline launch manifest appeared first on NASASpaceFlight.com.


Newsletter sign-up

Weekly statistics, charts and insights to help you stay on top of the space industry.